Погода в Верхнем Бирагзанге

Россия / Республика Северная Осетия — Алания     43°00′49″N   44°14′14″E
темп.,
°C
ветер,
м/с
пор.,
м/с
влажн.,
%
обл.,
%
осадки,
мм/ч
давл.,
гПа
погр.,
м
21 апреля, ср
ср2100:00+13с128593 0.0 1013290
03:00+12с239181 0.2 1014319
06:00+10с238676 0.1 1016347
09:00+11ссв327297 0.1 1018600
12:00+11всв2278100 2.8 1018560
15:00+8в2291100 6.6 1020296
18:00+7ссв1295100 4.2 1021223
21:00+7всв1196100 5.3 1022108
22 апреля, чт
чт2200:00+6ссз119977 0.2 102182
03:00+7ссз119689 0.3 1021105
06:00+7с119696 0.3 1022147
09:00+8ссв2291100 0.8 1022402
12:00+8ссв2389100 0.2 1022515
15:00+8ссв2390100 0.5 1022527
18:00+7св1294100 0.4 1022255
21:00+7ссз1197100 1.9 1022125
23 апреля, пт
пт2300:00+7с1299100 2.0 1020163
03:00+6сз2399100 5.6 1022245
06:00+6зюз1194100 3.7 1023129
09:00+7зюз2489100 6.5 1024578
12:00+12с125873 0.5 10221230
15:00+13ссв325748 0.6 10211208
18:00+11ссв237314 0.0 1022242
21:00+7ююз2275100 0.0 102121
24 апреля, сб
сб2400:00+6ююз3255100 0.0 101924
03:00+6юз225385 0.0 101828
06:00+7юз1164100 0.0 101914
09:00+11ссз326599 0.0 1018521
12:00+14ссв325926 0.0 1018987
15:00+15ссв325740 0.0 10171172
18:00+13с227193 0.0 101895
21:00+11сз228196 0.0 101965
25 апреля, вс
вс2500:00+10зсз118293 0.0 101954
03:00+9зсз128657 0.0 101997
06:00+8сз128856 0.0 1018199
09:00+11ссв317973 0.0 1016564
12:00+12с327899 0.0 1014721
15:00+12ссз338199 0.1 1015689
18:00+8ссз2397100 0.1 1017263
21:00+7ссв2297100 0.1 1017204